Location: Hilton Head Island
(32.2163°N, 80.7526°W)
Time: 13:32:00
(UTC-05:00)

Vanguard 2 - Pass Details

Date: 22 February 2026
Orbit: 553 x 2896 km, 32.9° (Epoch: 6 March)

Event Time Altitude Azimuth Distance (km) Brightness Sun altitude
Exits shadow 06:16:17 11° 267° (W) 2,805 9.7 -9.6°
Maximum altitude 06:22:36 84° 356° (N) 767 7.5 -8.3°
Drops below altitude 10° 06:27:01 10° 85° (E) 1,981 11.2 -7.3°
Sets 06:29:00 0° 86° (E) 2,790 12.5 -6.9°
